Simultaneous Nadir Overpasses (SNOs) Predictions

Prediction of SNOs between NOAA-19 and METOP-C Satellite Orbit:

Table of predicted SNOs for the next 14.0 days since TLE Epoch: 2/15/2020
Index Date (NOAA-19) Time (NOAA-19) Lat,Lon (NOAA-19) SZA (NOAA-19 ) Date (METOP-C) Time (METOP-C) Lat,Lon (METOP-C) SZA (METOP-C ) Distance(km) Time Diff (sec)
1 02/16/2020 03:52:14 -79.93, -39.37 87.26 02/16/2020 03:53:23 -79.88, -36.79 87.16 50.49 69
2 02/16/2020 04:43:07 79.80, 129.47 92.68 02/16/2020 04:44:06 79.77, 129.52 92.68 2.67 59
3 02/16/2020 05:34:09 -79.78, -63.15 87.34 02/16/2020 05:34:48 -79.77, -63.16 87.34 1.24 39
4 02/16/2020 06:25:07 79.78, 104.17 92.65 02/16/2020 06:25:27 79.79, 104.30 92.67 2.81 20
5 02/16/2020 07:16:09 -79.77, -88.45 87.37 02/16/2020 07:16:09 -79.79, -88.38 87.35 2.59 0
6 02/16/2020 08:07:07 79.76, 78.87 92.62 02/16/2020 08:06:49 79.77, 78.80 92.62 1.63 18
7 02/16/2020 08:58:10 -79.78,-114.04 87.39 02/16/2020 08:57:31 -79.77,-113.88 87.40 3.22 39
8 02/16/2020 09:49:08 79.77, 53.27 92.60 02/16/2020 09:48:11 79.75, 53.29 92.57 2.18 57
9 02/16/2020 10:40:06 -79.65,-138.17 87.46 02/16/2020 10:38:55 -79.69,-139.95 87.54 35.86 71
10 02/27/2020 03:23:50 -79.82, -30.53 91.22 02/27/2020 03:25:03 -79.80, -30.50 91.23 2.61 73
11 02/27/2020 04:14:45 79.80, 137.00 88.76 02/27/2020 04:15:42 79.81, 136.98 88.79 1.75 57
12 02/27/2020 05:05:50 -79.80, -55.83 91.26 02/27/2020 05:06:24 -79.81, -55.72 91.24 2.23 34
13 02/27/2020 05:56:46 79.81, 111.40 88.74 02/27/2020 05:57:04 79.79, 111.47 88.74 1.91 18
14 02/27/2020 06:47:50 -79.78, -81.13 91.29 02/27/2020 06:47:46 -79.79, -81.23 91.29 2.14 4
15 02/27/2020 07:38:46 79.79, 86.10 88.71 02/27/2020 07:38:26 79.78, 85.97 88.68 2.90 20
16 02/27/2020 08:29:51 -79.79,-106.72 91.31 02/27/2020 08:29:08 -79.77,-106.73 91.34 2.14 43
17 02/27/2020 09:20:46 79.77, 60.80 88.67 02/27/2020 09:19:47 79.79, 60.75 88.68 2.28 59




NCC Satellite Simultaneous Nadir Overpasses (SNOs) Prediction Service
